Waco, TX

6:29 PM CST on February 23, 2017 (GMT -0600)
Waco Regional

Weather History for KACT - March, 2013

Change the Weather History Date:

Tuesday, March 5, 2013

  Actual Average Record
Temperature  
Mean Temperature 48 °F 55 °F  
Max Temperature 67 °F 66 °F 97 °F (1991)
Min Temperature 29 °F 45 °F 23 °F (1989)
Degree Days  
Heating Degree Days 17 10  
Month to date heating degree days 71 54  
Since 1 July heating degree days 1637 1866  
Cooling Degree Days 0 1  
Month to date cooling degree days 3 4  
Year to date cooling degree days 20 13  
Moisture  
Dew Point 22 °F    
Average Humidity 38    
Maximum Humidity 60    
Minimum Humidity 16    
Precipitation  
Precipitation 0.00 in 0.11 in 1.11 in (1937)
Month to date precipitation T 0.56  
Year to date precipitation 7.15 5.31  
Snow  
Snow 0.00 in 0.00 in 0.70 in (2015)
Month to date snowfall 0.0 0.0  
Since 1 July snowfall T 0.8  
Snow Depth 0.00 in    
Sea Level Pressure  
Sea Level Pressure 30.24 in    
Wind  
Wind Speed 18 mph (NNW)    
Max Wind Speed 36 mph    
Max Gust Speed 46 mph    
Visibility 10 miles    
Events      
T = Trace of Precipitation, MM = Missing Value Source: NWS Daily Summary

Daily Weather History Graph

Daily Weather History Graph

Search for Another Location

Airport or City:

Trip Planner

Search our weather history database for the weather conditions in past years. The results will help you decide how hot, cold, wet, or windy it might be!

Date:

Astronomy

Mar. 05, 2013 Rise Set
Actual Time 6:50 AM CST 6:30 PM CST
Civil Twilight 6:26 AM CST 6:54 PM CST
Nautical Twilight 5:58 AM CST 7:22 PM CST
Astronomical Twilight 5:30 AM CST 7:50 PM CST
Moon 1:48 AM CST (3/5) 12:26 PM CST (3/5)
Length of Visible Light 12h 27m
Length of Day
11h 39m
Last Quarter, 40% of the Moon is Illuminated
Mar 5
Last Quarter
Mar 11
New
Mar 19
First Quarter
Mar 27
Full
Apr 2
Last Quarter

Hourly Weather History & Observations

Time (CST) Temp. Windchill Dew Point Humidity Pressure Visibility Wind Dir Wind Speed Gust Speed Precip Events Conditions
1:26 AM 64.4 °F - 41.0 °F 42% 29.84 in 10.0 mi NNW 23.0 mph 35.7 mph N/A   Clear
1:51 AM 55.4 °F - 41.0 °F 58% 29.89 in 8.0 mi North 26.5 mph 38.0 mph N/A   Partly Cloudy
2:51 AM 51.1 °F - 37.9 °F 61% 30.00 in 8.0 mi NNW 32.2 mph 43.7 mph N/A   Clear
3:51 AM 50.0 °F - 36.0 °F 59% 30.03 in 9.0 mi North 27.6 mph 39.1 mph N/A   Clear
4:51 AM 50.0 °F - 33.1 °F 52% 30.10 in 10.0 mi North 23.0 mph 35.7 mph N/A   Clear
5:51 AM 48.9 °F - 32.0 °F 52% 30.15 in 10.0 mi North 23.0 mph 31.1 mph N/A   Clear
6:51 AM 48.2 °F - 28.4 °F 46% 30.20 in 10.0 mi North 24.2 mph 33.4 mph N/A   Clear
7:51 AM 48.9 °F - 26.1 °F 41% 30.24 in 10.0 mi North 24.2 mph 39.1 mph N/A   Clear
8:51 AM 50.0 °F - 23.0 °F 35% 30.28 in 10.0 mi North 26.5 mph 38.0 mph N/A   Clear
9:51 AM 54.0 °F - 24.1 °F 31% 30.29 in 10.0 mi North 19.6 mph 32.2 mph N/A   Clear
10:51 AM 55.9 °F - 19.0 °F 24% 30.30 in 10.0 mi NNW 21.9 mph 32.2 mph N/A   Clear
11:51 AM 57.9 °F - 12.0 °F 16% 30.30 in 10.0 mi NNW 25.3 mph 36.8 mph N/A   Clear
12:51 PM 59.0 °F - 15.1 °F 18% 30.30 in 10.0 mi North 21.9 mph 32.2 mph N/A   Clear
1:51 PM 60.1 °F - 16.0 °F 18% 30.29 in 10.0 mi NNW 21.9 mph 34.5 mph N/A   Clear
2:51 PM 60.1 °F - 14.0 °F 16% 30.28 in 10.0 mi North 24.2 mph 32.2 mph N/A   Clear
3:51 PM 60.1 °F - 14.0 °F 16% 30.28 in 10.0 mi NNW 24.2 mph 29.9 mph N/A   Clear
4:51 PM 59.0 °F - 14.0 °F 17% 30.28 in 10.0 mi North 17.3 mph 23.0 mph N/A   Clear
5:51 PM 55.9 °F - 14.0 °F 19% 30.31 in 10.0 mi NNW 13.8 mph - N/A   Clear
6:51 PM 50.0 °F - 16.0 °F 26% 30.34 in 10.0 mi NNW 8.1 mph - N/A   Clear
7:51 PM 43.0 °F 40.3 °F 17.1 °F 35% 30.34 in 10.0 mi North 4.6 mph - N/A   Clear
8:51 PM 43.0 °F 39.5 °F 17.1 °F 35% 30.35 in 10.0 mi NNW 5.8 mph - N/A   Clear
9:51 PM 42.1 °F 38.4 °F 18.0 °F 38% 30.37 in 10.0 mi NW 5.8 mph - N/A   Clear
10:51 PM 37.9 °F 33.5 °F 19.0 °F 47% 30.38 in 10.0 mi NW 5.8 mph - N/A   Clear
11:51 PM 32.0 °F 25.6 °F 19.9 °F 61% 30.38 in 10.0 mi WNW 6.9 mph - N/A   Clear